Location: ??????
(42.0089°N, 44.3281°E)
Time: 05:47:42
(UTC+00:00)

USA 267 - Visible Passes

Search period start: 08 December 2023 00:00
Search period end: 18 December 2023 00:00
Orbit: 1102 x 1105 km, 123.0° (Epoch: 07 December)

Date Brightness Start Highest point End Pass type
(mag) Time Alt. Az. Time Alt. Az. Time Alt. Az.
08 Dec 5.5 00:02:57 10° NE 00:04:24 16° NNE 00:04:24 16° NNE visible
08 Dec 4.6 01:44:31 10° ENE 01:49:43 26° NNE 01:51:44 22° NNW visible
08 Dec 3.9 03:25:32 10° ESE 03:31:47 50° NNE 03:38:03 10° NW visible
09 Dec 4.8 01:02:41 10° NE 01:07:08 23° N 01:07:08 23° N visible
09 Dec 4.4 02:43:41 10° E 02:49:24 34° NNE 02:54:28 13° NW visible
10 Dec 5.3 00:20:26 10° NE 00:22:31 18° NNE 00:22:31 18° NNE visible
10 Dec 4.6 02:02:00 10° ENE 02:07:13 26° NNE 02:09:51 20° NNW visible
10 Dec 3.9 03:43:01 10° ESE 03:49:16 50° NNE 03:55:32 10° NW visible
10 Dec 5.8 23:37:48 10° NE 23:37:54 10° NE 23:37:54 10° NE visible
11 Dec 4.7 01:20:10 10° NE 01:25:08 24° N 01:25:15 24° N visible
11 Dec 4.3 03:01:10 10° E 03:06:53 34° NNE 03:12:35 10° NW visible
12 Dec 5.1 00:37:55 10° NE 00:40:38 20° NNE 00:40:38 20° NNE visible
12 Dec 4.6 02:19:29 10° ENE 02:24:41 26° NNE 02:27:58 18° NNW visible
12 Dec 5.6 23:55:17 10° NE 23:56:02 13° NE 23:56:02 13° NE visible
13 Dec 4.6 01:37:39 10° NE 01:42:36 24° N 01:43:22 23° N visible
13 Dec 4.3 03:18:39 10° E 03:24:22 34° NNE 03:30:07 10° NW visible
14 Dec 4.9 00:55:24 10° NE 00:58:45 22° NNE 00:58:45 22° NNE visible
14 Dec 4.6 02:36:57 10° ENE 02:42:10 26° NNE 02:46:06 15° NNW visible
15 Dec 5.4 00:12:46 10° NE 00:14:09 16° NNE 00:14:09 16° NNE visible
15 Dec 4.6 01:55:08 10° NE 02:00:05 24° N 02:01:29 22° NNW visible
15 Dec 4.3 03:36:07 10° E 03:41:51 34° NNE 03:47:36 10° NW visible
16 Dec 4.7 01:12:53 10° NE 01:16:53 24° N 01:16:53 24° N visible
16 Dec 4.6 02:54:26 10° ENE 02:59:39 26° NNE 03:04:13 13° NW visible
17 Dec 5.2 00:30:15 10° NE 00:32:17 19° NNE 00:32:17 19° NNE visible
17 Dec 4.6 02:12:36 10° NE 02:17:34 24° N 02:19:38 20° NNW visible
17 Dec 5.8 23:47:22 10° NE 23:47:41 11° NE 23:47:41 11° NE visible
